Regional Weather Roundup
Issued by NWS

Home | Current Version | Previous Version | Graphics & Text | Print | Product List | Glossary On
Versions: 1 2 3 4 5 6 7 8 9 10 11 12 13 14 15 16 17 18 19 20 21 22 23 24 25 26 27 28 29 30 31 32 33 34 35 36 37 38 39 40 41 42 43 44 45 46 47 48 49 50
000
ASUS43 KLOT 270110
RWRIL

ILLINOIS REGIONAL WEATHER ROUNDUP
NATIONAL WEATHER SERVICE CHICAGO/ROMEOVILLE IL
700 PM CST FRI DEC 26 2014

NOTE: "FAIR" INDICATES FEW OR NO CLOUDS BELOW 12,000 FEET WITH NO
SIGNIFICANT WEATHER AND/OR OBSTRUCTIONS TO VISIBILITY.

* THESE STATIONS ARE NOT UNDER NWS QUALITY CONTROL. THEY ALSO MAY NOT
  REPORT WEATHER SUCH AS PRECIPITATION OR FOG.

ILZ001-002-007-009-015-016-024-270200-
NORTHWEST ILLINOIS

CITY           SKY/WX    TMP DP  RH WIND       PRES   REMARKS
MOLINE         CLOUDY    42  37  82 CALM      29.97S
STERLING*      MOCLDY    45  37  76 CALM      29.99S
SAVANNA*       CLOUDY    40  36  83 CALM      29.99S
$$

ILZ003-004-008-010-011-017-018-270200-
NORTH CENTRAL ILLINOIS

CITY           SKY/WX    TMP DP  RH WIND       PRES   REMARKS
ROCKFORD       CLOUDY    43  38  82 S3        30.02S
FREEPORT*      CLOUDY    40  37  87 SE3       30.01S
ROCHELLE*      MOCLDY    37  36  96 S5        30.01S WCI  33
DE KALB*       PTCLDY    35  34  93 S5        30.01S WCI  31
PERU*          CLOUDY    45  41  86 S9        30.02S
$$

ILZ005-006-012>014-019>023-270200-
NORTHEAST ILLINOIS

CITY           SKY/WX    TMP DP  RH WIND       PRES   REMARKS
CHICAGO-OHARE  CLOUDY    46  39  76 S5        30.01S
CHICAGO-MIDWAY MOCLDY    51  43  74 S13       30.02S
AURORA         PTCLDY    40  36  86 SE3       30.02R
LANSING*       CLOUDY    48  43  83 S10       30.04R
JOLIET*        MOCLDY    44  40  88 S3        30.03R
WAUKEGAN       PTCLDY    38  35  89 CALM      30.02R
DUPAGE AIRPORT CLOUDY    43  39  86 S5        30.01S
KANKAKEE*      CLOUDY    47  44  87 S9        30.05S
WHEELING       CLOUDY    43  38  82 CALM      30.04R
MORRIS*        MOCLDY    44  42  93 S6        30.02R
ROMEOVILLE*    MOCLDY    42  40  93 S7        30.03R
NORTHERLY ISL    N/A     49  41  74 S9          N/A
$$

LMZ740>746-270200-
SOUTHERN LAKE MICHIGAN

STATION/POSITION SKY/WX   TEMP    WIND        PRES    VSBY  WAVE
                          AIR SEA DIR/SP/G                  HT/PER
                          (F)     (DEG/KT/KT) (MB)    (MI)  (FT/S)
WAUKEGAN HARBOR            45        CALM       N/A
HARRISON CRIB              47     180/ 13/ 14   N/A
BURNHAM HARBOR             49     210/ 11/ 12   N/A
CALUMET HARBOR             49     180/  8/ 12 1015.6S
MICHIGAN CITY              48     170/ 10/ 14   N/A
$$

ILZ025>027-034>036-040-047-049-050-058-095>099-270200-
WEST-CENTRAL ILLINOIS

CITY           SKY/WX    TMP DP  RH WIND       PRES   REMARKS
QUINCY         CLOUDY    49  42  77 SE6       29.96R
GALESBURG*     CLOUDY    46  41  82 CALM      29.98R
MACOMB*        CLOUDY    46  42  85 E3        29.99F
JACKSONVILLE*  CLOUDY    52  45  76 SE8       29.99R
PITTSFIELD*    MOCLDY    49  43  78 SE7       29.99R
$$

ILZ028>032-037-038-041>044-048-051>054-059>061-270200-
CENTRAL ILLINOIS

CITY           SKY/WX    TMP DP  RH WIND       PRES   REMARKS
PONTIAC        PTCLDY    43  41  94 S7        30.04R
BLOOMINGTON    PTCLDY    42  41  97 S10       30.03S
DECATUR        MOCLDY    48  43  82 S13       30.05R
PEORIA         CLOUDY    50  42  74 S8        30.00F
LACON*         CLOUDY    47  41  81 S9        30.00F
LINCOLN*       CLOUDY    47  43  85 S6        30.02S
SPRINGFIELD    CLOUDY    51  43  74 S14G24    30.02S
TAYLORVILLE    PTCLDY    46  43  87 S14G24    30.04S
$$

ILZ033-039-045-046-055>057-062-063-270200-
EAST-CENTRAL ILLINOIS

CITY           SKY/WX    TMP DP  RH WIND       PRES   REMARKS
CHAMPAIGN      MOCLDY    46  42  86 S12       30.06R
DANVILLE*      CLOUDY    45  42  88 S5        30.04S
RANTOUL*       PTCLDY    42  41  95 S6        30.06R
MATTOON        PTCLDY    48  43  82 S8        30.07R
PARIS*         MOCLDY    46  43  89 S10       30.09S
$$

ILZ079-100>102-270200-
SOUTHWEST ILLINOIS

CITY           SKY/WX    TMP DP  RH WIND       PRES   REMARKS
BELLEVILLE     CLOUDY    50  45  82 S13       30.06R
CAHOKIA*       CLOUDY    52  44  74 S9        30.05R
SPARTA*        CLOUDY    49  41  74 S13       30.09S
$$

ILZ064>066-069>071-074>076-080>082-084>086-088>090-092>094-270200-
SOUTH-CENTRAL ILLINOIS

CITY           SKY/WX    TMP DP  RH WIND       PRES   REMARKS
CARBONDALE     CLOUDY    51  41  68 S10       30.11S
CAIRO*         CLOUDY    51  41  70 S3        30.14R
EFFINGHAM*     PTCLDY    50  40  69 SE8       30.10R
MARION         CLOUDY    52  43  71 S15       30.13R
MT. VERNON     MOCLDY    46  39  76 S5        30.11R
CENTRALIA*     MOCLDY    49  42  76 S12       30.09R
SALEM*         MOCLDY    52  44  75 S9        30.09S
METROPOLIS*    MOCLDY    50  42  72 S8        30.15R
$$

ILZ067-068-072-073-078-083-087-091-270200-
SOUTHEAST ILLINOIS

CITY           SKY/WX    TMP DP  RH WIND       PRES   REMARKS
LAWRENCEVILLE  PTCLDY    44  40  85 S10       30.11S
FLORA*         PTCLDY    46  42  85 S7        30.10S
FAIRFIELD*     CLOUDY    49  43  79 S6        30.10R
HARRISBURG*    CLOUDY    51  42  71 S10       30.14S
ROBINSON*      MOCLDY    46  41  82 S7        30.11S
CARMI*         FAIR      47  43  85 S10       30.12R
$$

ABBREVIATIONS USED IN REMARKS
   TC - TEMPERATURE IN CELSIUS
  WCI - WIND CHILL INDEX
   HX - HEAT INDEX
  VSB - VISIBILITY
$$




USA.gov is the U.S. government's official web portal to all federal, state and local government web resources and services.